Location: Fours
(44.3167°N, 6.7000°E)
Time: 20:58:20
(UTC+00:00)

N. Korean satellite - Pass Details

Date: 04 October 2021
Orbit: 450 x 495 km, 97.3° (Epoch: 23 October)

Event Time Altitude Azimuth Distance (km) Brightness Sun altitude
Rises 04:00:46 0° 27° (NNE) 2,561 10.8 -17.5°
Reaches altitude 10° 04:03:16 10° 45° (NE) 1,682 10.1 -17.1°
Maximum altitude 04:05:58 20° 94° (E) 1,203 9.5 -16.6°
Drops below altitude 10° 04:08:39 10° 142° (SE) 1,684 9.7 -16.1°
Sets 04:11:09 0° 160° (SSE) 2,564 10.4 -15.7°
